Tracking 19176 objects as of 25-May-2018
HD Live streaming from Space Station
objects crossing your sky now

BEESAT

Track BEESAT now!
10-day predictions
BEESAT is classified as:


NORAD ID: 35933
Int'l Code: 2009-051C
Perigee: 709.1 km
Apogee: 715.7 km
Inclination: 98.5 °
Period: 98.9 minutes
Semi major axis: 7083 km
RCS: 0.033 m2 (small)
Launch date: September 23, 2009
Source: Germany (GER)
Launch site: SRIHARIKOTA (SRI)
Uplink (MHz):
Downlink (MHz): 436.000
Beacon (MHz): 436.000
Mode: 9600/4800bps GMSK
Call sign: DP0BEE
Status: Active


BEESAT is a a cubesat satellite built by student teams to test new attitude control systems.
aabbcc
Your satellite tracking list
Your tracking list is empty




NASA's NSSDC Master Catalog

Two Line Element Set (TLE):
1 35933U 09051C   18144.41555743 +.00000115 +00000-0 +36990-4 0  9998
2 35933 098.5461 296.5418 0004716 302.5574 057.5167 14.56262451460004
Source of the keplerian elements: Caltech